Regional Weather Roundup
Issued by NWS

Home | Current Version | Previous Version | Graphics & Text | Print | Product List | Glossary On
Versions: 1 2 3 4 5 6 7 8 9 10 11 12 13 14 15 16 17 18 19 20 21 22 23 24 25 26 27 28 29 30 31 32 33 34 35 36 37 38 39 40 41 42 43 44 45 46 47 48 49 50
000
ASUS45 KTFX 040110
RWRMT
MONTANA REGIONAL WEATHER ROUNDUP
NATIONAL WEATHER SERVICE GREAT FALLS MT
700 PM MDT FRI JUL 03 2015

NOTE: "FAIR" INDICATES FEW OR NO CLOUDS BELOW 12000 FEET WITH NO
SIGNIFICANT WEATHER AND/OR OBSTRUCTIONS TO VISIBILITY.

MTZ001>007-043-040200-
WEST OF THE DIVIDE

CITY           SKY/WX    TMP DP  RH WIND       PRES   REMARKS
KALISPELL      CLEAR     97  37  12 VRB6      29.80F HX  92
MISSOULA       SUNNY     95  37  13 NW10      29.82F HX  90
BUTTE          SUNNY     87  36  16 W7        30.00F
MULLAN PASS    SUNNY     79  40  24 VRB3      30.09F
DEER LODGE       N/A     88  39  18 NW7       29.97F
EUREKA           N/A     95  43  16 SW9       29.78F HX  91
HAMILTON         N/A     95  41  15 SE3       29.86F HX  91
RONAN            N/A     97  45  16 CALM      29.89F HX  93
$$

MTZ008-052>055-040200-
SOUTHWEST MONTANA

CITY           SKY/WX    TMP DP  RH WIND       PRES   REMARKS
BOZEMAN        FAIR      90  41  18 N6        29.91F
DILLON         SUNNY     91  35  13 N6        29.95F
W YELLOWSTONE  MOSUNNY   82  28  14 W9        30.08S
THREE FORKS      N/A     92  41  17 E3        29.90F
TWIN BRIDGES     N/A     91  42  18 S5        29.94F
$$

MTZ009-010-012-014-046-048-049-054-040200-
EAST SLOPES AND CENTRAL MONTANA

CITY           SKY/WX    TMP DP  RH WIND       PRES   REMARKS
CUT BANK       SUNNY     91  39  16 NW3       29.85S
GREAT FALLS    SUNNY     94  42  16 CALM      29.83F HX  90
MALMSTROM AFB  MOSUNNY   92  41  16 S3        29.82F
HELENA         FAIR      95  37  13 W9G21     29.84F HX  90
CONRAD           N/A     91  52  26 W9        29.88F
$$

MTZ011-013-016-021-045-047-050-051-040200-
NORTH CENTRAL MONTANA

CITY           SKY/WX    TMP DP  RH WIND       PRES   REMARKS
HAVRE          PTSUNNY   93  43  17 S6        29.76F
LEWISTOWN      MOSUNNY   89  47  23 VRB3      29.91F
CHINOOK          N/A     91  48  22 SE8       29.76F
FORT BENTON      N/A     93  46  20 E3        29.79F
$$

MTZ017>020-022>027-061-062-040200-
NORTHEAST MONTANA

CITY           SKY/WX    TMP DP  RH WIND       PRES   REMARKS
GLASGOW        SUNNY     86  49  27 E6        29.82F HAZE
JORDAN           N/A     89  48  24 NE3       29.83F
SIDNEY         MOSUNNY   88  59  37 CALM      29.85F
WOLF POINT     MOSUNNY   87  62  43 E7        29.82F
PLENTYWOOD       N/A     81  64  57 SE5       29.86S
POPLAR           N/A     82  66  57 E5        29.83F
$$

MTZ028>42-056>058-040200-
SOUTHCENTRAL AND SOUTHEAST MONTANA

CITY           SKY/WX    TMP DP  RH WIND       PRES   REMARKS
BAKER          SUNNY     82  59  45 S8        29.90F
BILLINGS       MOSUNNY   90  46  21 E7        29.88F
LIVINGSTON     MOSUNNY   91  42  18 W9        29.91F
MILES CITY     MOSUNNY   89  50  26 NE8       29.83F
FORSYTH          N/A     90  48  24 NE3       29.83F
LAUREL           N/A     90  48  23 NE5       29.88F
ROUNDUP          N/A     89  48  24 NE7       29.80F
$$

REGIONAL REPORTS...DAKOTAS

CITY           SKY/WX    TMP DP  RH WIND       PRES   REMARKS
WILLISTON      MOSUNNY   85  58  39 S7        29.85F
MINOT          CLOUDY    78  64  61 SE8       29.86F HAZE
DICKINSON      SUNNY     77  64  64 SE10      29.90F
BEACH          FAIR      77  64  65 SE9       29.90F
CROSBY         FAIR      75  75 100 E3        29.87S FOG
BISMARCK       PTSUNNY   78  64  61 SE7       29.91F HAZE
GRAND FORKS    MOSUNNY   77  61  57 E3        29.89S HAZE
FARGO          SUNNY     77  65  66 NE5       29.89S HAZE
BUFFALO SD       N/A     81  57  43 SE10      29.86F
RAPID CITY     SUNNY     77  62  59 SE9       29.95F
$$

REGIONAL REPORTS...WYOMING/IDAHO/WASHINGTON

CITY           SKY/WX    TMP DP  RH WIND       PRES   REMARKS
GILLETTE       MOSUNNY   81  55  40 SE16G23   29.94F
SHERIDAN       MOSUNNY   87  54  32 NE3       29.91S
BUFFALO WY     MOSUNNY   81  54  39 S7        30.00S
CODY           PTSUNNY   81  54  39 CALM      29.98S
YELLOWSTONE LA   N/A     76  35  22 VRB5      30.20F
IDAHO FALLS    MOSUNNY   91  48  22 S15       29.88F
SALMON         SUNNY     91  39  16 N6        29.83F
BOISE          MOSUNNY  101  34   9 NW10      29.79F HX  95
SPOKANE        MOSUNNY   98  38  12 W10G21    29.79F HX  93
$$

REGIONAL REPORTS...ALBERTA

CITY           SKY/WX    TMP DP  RH WIND       PRES   REMARKS
EDMONTON       SUNNY     79  34  19 NW12      29.80F
CALGARY        PTSUNNY   82  52  34 E6        29.84F
LETHBRIDGE     MOSUNNY   86  54  32 E10       29.80F
MEDICINE HAT   MOSUNNY   91  50  24 SW12      29.74S
CARDSTON         N/A     88  50  27 NW3         N/A
MILK RIVER       N/A     88  54  31 NE8         N/A
ONEFOUR          N/A     88  46  23 NW14        N/A
$$

REGIONAL REPORTS...SASKATCHEWAN

CITY           SKY/WX    TMP DP  RH WIND       PRES   REMARKS
SWIFT CURRENT  SUNNY     84  59  42 S10       29.78F
REGINA         PTSUNNY   81  63  54 SE10G17   29.81F SMOKE
SASKATOON      PTSUNNY   84  55  37 S12       29.74S
CYPRESS HILLS    N/A     81  46  30 SW7         N/A
ROCKGLEN         N/A     81  57  44 S13         N/A
$$


USA.gov is the U.S. government's official web portal to all federal, state and local government web resources and services.